| time (UTC) | temp C | wind direction | speed KPH | gust KPH | rain 1hr cm | rain 24hr cm | rain mn cm | humidity % | barometer mb |
| 20260507170326 | 20 | 300 | 8.0 | 0.0 | 0.00 | 0.00 | 0.00 | 60 | 1013.0 |
| 20260507164827 | 21 | 290 | 8.0 | 0.0 | 0.00 | 0.00 | 0.00 | 57 | 1013.0 |
| 20260507163326 | 21 | 290 | 8.0 | 0.0 | 0.00 | 0.00 | 0.00 | 57 | 1013.0 |
| 20260507161826 | 22 | 290 | 4.8 | 0.0 | 0.00 | 0.00 | 0.00 | 53 | 1013.0 |
| 20260507160326 | 22 | 290 | 4.8 | 0.0 | 0.00 | 0.00 | 0.00 | 53 | 1013.0 |
| 20260507154826 | 22 | 280 | 9.7 | 0.0 | 0.00 | 0.00 | 0.00 | 47 | 1013.0 |
| 20260507153326 | 22 | 280 | 9.7 | 0.0 | 0.00 | 0.00 | 0.00 | 47 | 1013.0 |
| 20260507151826 | 22 | 270 | 12.9 | 0.0 | 0.00 | 0.00 | 0.00 | 50 | 1013.0 |
| 20260507150326 | 22 | 270 | 12.9 | 0.0 | 0.00 | 0.00 | 0.00 | 50 | 1013.0 |
| 20260507144826 | 22 | 250 | 22.5 | 0.0 | 0.00 | 0.00 | 0.00 | 50 | 1013.0 |
| 20260507143328 | 22 | 250 | 22.5 | 0.0 | 0.00 | 0.00 | 0.00 | 50 | 1013.0 |
| 20260507141826 | 22 | 240 | 27.4 | 0.0 | 0.00 | 0.00 | 0.00 | 50 | 1013.0 |
| 20260507140326 | 22 | 240 | 27.4 | 0.0 | 0.00 | 0.00 | 0.00 | 50 | 1013.0 |
| 20260507134827 | 23 | 250 | 12.9 | 0.0 | 0.00 | 0.00 | 0.00 | 50 | 1013.0 |
| 20260507133326 | 23 | 250 | 12.9 | 0.0 | 0.00 | 0.00 | 0.00 | 50 | 1013.0 |
| 20260507131823 | 22 | 320 | 11.3 | 0.0 | 0.00 | 0.00 | 0.00 | 44 | 1012.0 |
| 20260507130326 | 22 | 320 | 11.3 | 0.0 | 0.00 | 0.00 | 0.00 | 44 | 1012.0 |
| 20260507123404 | 26 | 4.8 | 0.0 | 0.00 | 0.00 | 0.00 | 34 | 1013.0 | |
| 20260507121826 | 26 | 4.8 | 0.0 | 0.00 | 0.00 | 0.00 | 37 | 1013.0 | |
| 20260507120326 | 26 | 4.8 | 0.0 | 0.00 | 0.00 | 0.00 | 37 | 1013.0 | |
| 20260507114826 | 27 | 4.8 | 0.0 | 0.00 | 0.00 | 0.00 | 32 | 1013.0 | |
| 20260507113344 | 27 | 280 | 8.0 | 0.0 | 0.00 | 0.00 | 0.00 | 32 | 1013.0 |
| 20260507111826 | 27 | 280 | 8.0 | 0.0 | 0.00 | 0.00 | 0.00 | 32 | 1013.0 |
| 20260507110326 | 27 | 280 | 8.0 | 0.0 | 0.00 | 0.00 | 0.00 | 32 | 1013.0 |
| 20260507104826 | 26 | 3.2 | 0.0 | 0.00 | 0.00 | 0.00 | 37 | 1014.0 | |
| 20260507103326 | 26 | 3.2 | 0.0 | 0.00 | 0.00 | 0.00 | 37 | 1014.0 | |
| 20260507101826 | 25 | 240 | 9.7 | 0.0 | 0.00 | 0.00 | 0.00 | 39 | 1014.0 |
| 20260507100327 | 25 | 240 | 9.7 | 0.0 | 0.00 | 0.00 | 0.00 | 39 | 1014.0 |
| 20260507094826 | 25 | 8.0 | 0.0 | 0.00 | 0.00 | 0.00 | 36 | 1014.0 | |
| 20260507093327 | 25 | 8.0 | 0.0 | 0.00 | 0.00 | 0.00 | 36 | 1014.0 | |
| 20260507091828 | 23 | 4.8 | 0.0 | 0.00 | 0.00 | 0.00 | 41 | 1014.0 | |
| 20260507090326 | 23 | 4.8 | 0.0 | 0.00 | 0.00 | 0.00 | 41 | 1014.0 | |
| 20260507084826 | 23 | 4.8 | 0.0 | 0.00 | 0.00 | 0.00 | 47 | 1014.0 | |
| 20260507083327 | 23 | 4.8 | 0.0 | 0.00 | 0.00 | 0.00 | 47 | 1014.0 | |
| 20260507081826 | 21 | 100 | 8.0 | 0.0 | 0.00 | 0.00 | 0.00 | 53 | 1014.0 |
| 20260507080327 | 21 | 100 | 8.0 | 0.0 | 0.00 | 0.00 | 0.00 | 53 | 1014.0 |
| 20260507074827 | 22 | 110 | 11.3 | 0.0 | 0.00 | 0.00 | 0.00 | 47 | 1014.0 |
| 20260507073326 | 22 | 110 | 11.3 | 0.0 | 0.00 | 0.00 | 0.00 | 47 | 1014.0 |
| 20260507071826 | 20 | 4.8 | 0.0 | 0.00 | 0.00 | 0.00 | 56 | 1015.0 | |
| 20260507070326 | 20 | 4.8 | 0.0 | 0.00 | 0.00 | 0.00 | 56 | 1015.0 | |
| 20260507064826 | 17 | 60 | 4.8 | 0.0 | 0.00 | 0.00 | 0.00 | 60 | 1015.0 |
| 20260507063326 | 17 | 60 | 4.8 | 0.0 | 0.00 | 0.00 | 0.00 | 60 | 1015.0 |
| 20260507061836 | 16 | 80 | 8.0 | 0.0 | 0.00 | 0.00 | 0.00 | 68 | 1015.0 |
| 20260507060326 | 16 | 80 | 8.0 | 0.0 | 0.00 | 0.00 | 0.00 | 68 | 1015.0 |
| 20260507054826 | 15 | 60 | 11.3 | 0.0 | 0.00 | 0.00 | 0.00 | 68 | 1015.0 |
| 20260507053333 | 15 | 60 | 11.3 | 0.0 | 0.00 | 0.00 | 0.00 | 68 | 1015.0 |
| 20260507051827 | 12 | 80 | 11.3 | 0.0 | 0.00 | 0.00 | 0.00 | 77 | 1015.0 |
| 20260507050326 | 12 | 80 | 11.3 | 0.0 | 0.00 | 0.00 | 0.00 | 77 | 1015.0 |
| 20260507044823 | 12 | 90 | 11.3 | 0.0 | 0.00 | 0.00 | 0.00 | 77 | 1014.0 |
| 20260507043326 | 12 | 90 | 11.3 | 0.0 | 0.00 | 0.00 | 0.00 | 77 | 1014.0 |
| 20260507041826 | 11 | 100 | 11.3 | 0.0 | 0.00 | 0.00 | 0.00 | 82 | 1014.0 |
| 20260507040326 | 11 | 100 | 11.3 | 0.0 | 0.00 | 0.00 | 0.00 | 82 | 1014.0 |
| 20260507034823 | 11 | 100 | 11.3 | 0.0 | 0.00 | 0.00 | 0.00 | 77 | 1014.0 |
| 20260507033325 | 11 | 100 | 11.3 | 0.0 | 0.00 | 0.00 | 0.00 | 77 | 1014.0 |
| 20260507031826 | 10 | 90 | 11.3 | 0.0 | 0.00 | 0.00 | 0.00 | 82 | 1014.0 |
| 20260507030326 | 10 | 90 | 11.3 | 0.0 | 0.00 | 0.00 | 0.00 | 82 | 1014.0 |
| 20260507024826 | 10 | 90 | 11.3 | 0.0 | 0.00 | 0.00 | 0.00 | 82 | 1014.0 |
| 20260507023326 | 10 | 90 | 11.3 | 0.0 | 0.00 | 0.00 | 0.00 | 82 | 1014.0 |
| 20260507021826 | 11 | 90 | 9.7 | 0.0 | 0.00 | 0.00 | 0.00 | 82 | 1014.0 |
| 20260507020326 | 11 | 90 | 9.7 | 0.0 | 0.00 | 0.00 | 0.00 | 82 | 1014.0 |
| 20260507014826 | 11 | 80 | 11.3 | 0.0 | 0.00 | 0.00 | 0.00 | 82 | 1014.0 |
| 20260507013325 | 11 | 80 | 11.3 | 0.0 | 0.00 | 0.00 | 0.00 | 82 | 1014.0 |
| 20260507011826 | 11 | 80 | 11.3 | 0.0 | 0.00 | 0.00 | 0.00 | 82 | 1013.0 |
| 20260507010326 | 11 | 80 | 11.3 | 0.0 | 0.00 | 0.00 | 0.00 | 82 | 1013.0 |
| 20260507004826 | 12 | 90 | 11.3 | 0.0 | 0.00 | 0.00 | 0.00 | 77 | 1013.0 |
| 20260507003326 | 12 | 90 | 11.3 | 0.0 | 0.00 | 0.00 | 0.00 | 77 | 1013.0 |
| 20260507001826 | 11 | 80 | 9.7 | 0.0 | 0.00 | 0.00 | 0.00 | 88 | 1013.0 |
| 20260507000328 | 11 | 80 | 9.7 | 0.0 | 0.00 | 0.00 | 0.00 | 88 | 1013.0 |
| 20260506234826 | 12 | 3.2 | 0.0 | 0.00 | 0.00 | 0.00 | 77 | 1013.0 | |
| 20260506233326 | 12 | 3.2 | 0.0 | 0.00 | 0.00 | 0.00 | 77 | 1013.0 | |
| 20260506231827 | 12 | 1.6 | 0.0 | 0.00 | 0.00 | 0.00 | 72 | 1013.0 | |
| 20260506230326 | 12 | 1.6 | 0.0 | 0.00 | 0.00 | 0.00 | 72 | 1013.0 | |
| 20260506224822 | 13 | 3.2 | 0.0 | 0.00 | 0.00 | 0.00 | 67 | 1013.0 | |
| 20260506223326 | 13 | 3.2 | 0.0 | 0.00 | 0.00 | 0.00 | 67 | 1013.0 | |
| 20260506221826 | 13 | 1.6 | 0.0 | 0.00 | 0.00 | 0.00 | 67 | 1013.0 | |
| 20260506220325 | 13 | 1.6 | 0.0 | 0.00 | 0.00 | 0.00 | 67 | 1013.0 | |
| 20260506214842 | 16 | 280 | 3.2 | 0.0 | 0.00 | 0.00 | 0.00 | 59 | 1013.0 |
| 20260506213326 | 16 | 280 | 3.2 | 0.0 | 0.00 | 0.00 | 0.00 | 59 | 1013.0 |
| 20260506211823 | 16 | 0 | 0.0 | 0.0 | 0.00 | 0.00 | 0.00 | 59 | 1013.0 |
| 20260506210326 | 16 | 0 | 0.0 | 0.0 | 0.00 | 0.00 | 0.00 | 59 | 1013.0 |
| 20260506204827 | 17 | 290 | 4.8 | 0.0 | 0.00 | 0.00 | 0.00 | 52 | 1012.0 |
| 20260506203326 | 17 | 290 | 4.8 | 0.0 | 0.00 | 0.00 | 0.00 | 52 | 1012.0 |
| 20260506201823 | 18 | 290 | 11.3 | 0.0 | 0.00 | 0.00 | 0.00 | 49 | 1012.0 |
| 20260506200326 | 18 | 290 | 11.3 | 0.0 | 0.00 | 0.00 | 0.00 | 49 | 1012.0 |
| 20260506194845 | 21 | 140 | 4.8 | 0.0 | 0.00 | 0.00 | 0.00 | 38 | 1012.0 |
| 20260506193350 | 21 | 140 | 4.8 | 0.0 | 0.00 | 0.00 | 0.00 | 38 | 1012.0 |
| 20260506191827 | 21 | 210 | 11.3 | 0.0 | 0.00 | 0.00 | 0.00 | 40 | 1011.0 |
| 20260506190326 | 21 | 210 | 11.3 | 0.0 | 0.00 | 0.00 | 0.00 | 40 | 1011.0 |
| 20260506184831 | 22 | 170 | 16.1 | 0.0 | 0.00 | 0.00 | 0.00 | 36 | 1011.0 |
| 20260506183326 | 22 | 170 | 16.1 | 0.0 | 0.00 | 0.00 | 0.00 | 36 | 1011.0 |
| 20260506181826 | 22 | 240 | 14.5 | 0.0 | 0.00 | 0.00 | 0.00 | 41 | 1011.0 |
| 20260506180327 | 22 | 240 | 14.5 | 0.0 | 0.00 | 0.00 | 0.00 | 41 | 1011.0 |
| 20260506174826 | 22 | 210 | 11.3 | 0.0 | 0.00 | 0.00 | 0.00 | 41 | 1011.0 |
| 20260506173326 | 22 | 210 | 11.3 | 0.0 | 0.00 | 0.00 | 0.00 | 41 | 1011.0 |
| 20260506171826 | 23 | 260 | 4.8 | 0.0 | 0.00 | 0.00 | 0.00 | 34 | 1010.0 |